Tracking 33744 objects as of 12-Apr-2026
HD Live streaming from Space Station
objects crossing your sky now

STARLINK-37220

Track STARLINK-37220 now!
10-day predictions
STARLINK-37220 is classified as:


NORAD ID: 68398
Int'l Code: 2026-063U
Perigee: 334.2 km
Apogee: 336.1 km
Inclination: 97.3 °
Period: 91.1 minutes
Semi major axis: 6706 km
RCS: Unknown
Launch date: March 26, 2026
Source: United States (US)
Launch site: AIR FORCE WESTERN TEST RANGE (AFWTR)
Your satellite tracking list
Your tracking list is empty




NASA's NSSDC Master Catalog

Two Line Element Set (TLE):
1 68398U 26063U   26102.49786414  .00172751  00000-0  88285-3 0  9992
2 68398  97.2835 243.9457 0001424 132.6049 227.5339 15.80866103  2966
Source of the keplerian elements: AFSPC